Observations for Trim Patrick St
| Time | AQI | Temp °C | Hum % | Pres Pa | CO μg/m³ | H₂S μg/m³ | NO μg/m³ | NO₂ μg/m³ | O₃ μg/m³ | SO₂ μg/m³ | PM1 μg/m³ | PM2.5 μg/m³ | PM10 μg/m³ |
|---|---|---|---|---|---|---|---|---|---|---|---|---|---|
| Thursday 27 August 2026 | |||||||||||||
| 15:27 | 3 | 21.7 | 73 | 38,460 | 0 | 0 | 2.59 | 12.62 | 38.67 | 3.03 | 13.14 | 17.8 | 19.58 |
| 15:26 | 3 | 21.7 | 73 | 38,460 | 0 | 0 | 2.78 | 7.95 | 47.48 | 2.93 | 14 | 18.55 | 20.41 |
| 15:25 | 3 | 21.7 | 73 | 38,460 | 0.13 | 0 | 3.09 | 8.79 | 47.34 | 2.98 | 14 | 19.97 | 21.97 |
| 15:24 | 3 | 21.7 | 74 | 38,460 | 0.07 | 0 | 3.11 | 6.77 | 52.57 | 3.16 | 12.29 | 18.47 | 20.32 |
| 15:23 | 3 | 21.7 | 74 | 38,460 | 0 | 0 | 3.01 | 10.19 | 44.08 | 3.55 | 14 | 19.92 | 21.91 |
| 15:22 | 3 | 21.7 | 74 | 38,460 | 0 | 0 | 2.8 | 8.45 | 45.44 | 3.21 | 13.14 | 18.49 | 20.34 |
| 15:21 | 3 | 21.6 | 74 | 38,460 | 0 | 0 | 2.55 | 9.64 | 44.61 | 3.48 | 14 | 19.11 | 21.02 |
| 15:20 | 3 | 21.7 | 74 | 38,460 | 0 | 0 | 2.22 | 8.54 | 47.46 | 2.04 | 15.71 | 21.95 | 24.14 |
| 15:19 | 3 | 21.6 | 75 | 38,460 | 0 | 0 | 2.33 | 10.21 | 46.56 | 2.55 | 15.71 | 21.9 | 24.09 |
| 15:18 | 3 | 21.6 | 74 | 38,460 | 0 | 0 | 2.41 | 8.82 | 51.18 | 2.87 | 14 | 20.56 | 22.61 |
| 15:17 | 3 | 21.6 | 74 | 38,460 | 0 | 0 | 2.46 | 12.56 | 43.65 | 2.76 | 16.57 | 23.38 | 25.72 |
| 15:16 | 3 | 21.6 | 74 | 38,460 | 0 | 0 | 2.07 | 13.16 | 43.08 | 2.24 | 15.71 | 23.42 | 25.76 |
| 15:15 | 3 | 21.5 | 74 | 38,460 | 0 | 0 | 2.63 | 12.15 | 45.2 | 2.19 | 13.14 | 19.14 | 21.06 |
| 15:14 | 3 | 21.5 | 74 | 38,460 | 0 | 0 | 1.97 | 7.62 | 49.9 | 2.92 | 14 | 19.87 | 21.85 |
| 15:12 | 3 | 21.5 | 74 | 38,460 | 0 | 0 | 1.75 | 12.03 | 46.01 | 2.67 | 14.86 | 19.14 | 21.06 |
| 15:11 | 3 | 21.4 | 74 | 38,460 | 0 | 0 | 1.85 | 10.22 | 46.1 | 1.67 | 17.43 | 23.38 | 25.72 |
| 15:09 | 3 | 21.4 | 74 | 38,460 | 0 | 0 | 1.59 | 10.1 | 44.9 | 2.15 | 14.86 | 20.56 | 22.61 |
| 15:05 | 3 | 21.4 | 75 | 38,460 | 0 | 0 | 2.41 | 8.1 | 47.86 | 1.85 | 14.86 | 21.22 | 22.11 |
| 15:04 | 3 | 21.4 | 75 | 38,460 | 0 | 0 | 2.37 | 8.74 | 48.38 | 1.84 | 16.57 | 21.18 | 23.3 |
| 15:03 | 3 | 21.4 | 74 | 38,460 | 0 | 0 | 1.86 | 6.8 | 52.28 | 2.74 | 13.14 | 20.56 | 22.61 |